Regional Weather Roundup
Issued by NWS

Home | Current Version | Previous Version | Graphics & Text | Print | Product List | Glossary On
Versions: 1 2 3 4 5 6 7 8 9 10 11 12 13 14 15 16 17 18 19 20 21 22 23 24 25 26 27 28 29 30 31 32 33 34 35 36 37 38 39 40 41 42 43 44 45 46 47 48 49 50
000
ASUS43 KLOT 300806
RWRIL

ILLINOIS REGIONAL WEATHER ROUNDUP
NATIONAL WEATHER SERVICE CHICAGO/ROMEOVILLE IL
300 AM CDT SAT AUG 30 2014

NOTE: "FAIR" INDICATES FEW OR NO CLOUDS BELOW 12,000 FEET WITH NO
SIGNIFICANT WEATHER AND/OR OBSTRUCTIONS TO VISIBILITY.

* THESE STATIONS ARE NOT UNDER NWS QUALITY CONTROL. THEY ALSO MAY NOT
  REPORT WEATHER SUCH AS PRECIPITATION OR FOG.

ILZ001-002-007-009-015-016-024-300900-
NORTHWEST ILLINOIS

CITY           SKY/WX    TMP DP  RH WIND       PRES   REMARKS
MOLINE         MOCLDY    71  69  93 SW10      29.83R
STERLING*      MOCLDY    70  66  88 SW3       29.83R
SAVANNA*       CLOUDY    71  67  90 S6        29.81S
$$

ILZ003-004-008-010-011-017-018-300900-
NORTH CENTRAL ILLINOIS

CITY           SKY/WX    TMP DP  RH WIND       PRES   REMARKS
ROCKFORD       CLOUDY    71  67  87 S9        29.83S
FREEPORT*      PTCLDY    70  68  93 SW10      29.84R
ROCHELLE*      CLOUDY    70  67  90 S10       29.83F
DE KALB*       CLOUDY    69  67  93 S12       29.85R
PERU*          CLOUDY    73  69  88 SW9       29.85S
$$

ILZ005-006-012>014-019>023-300900-
NORTHEAST ILLINOIS

CITY           SKY/WX    TMP DP  RH WIND       PRES   REMARKS
CHICAGO-OHARE  CLOUDY    74  67  78 S13       29.83F
CHICAGO-MIDWAY CLOUDY    76  70  82 S9        29.84F
AURORA         CLOUDY    73  68  84 S12       29.84S
LANSING*         N/A    N/A N/A N/A MISG        N/A
JOLIET*        CLOUDY    73  68  83 S8        29.86S
WAUKEGAN       CLOUDY    74  68  81 S9        29.81F
DUPAGE AIRPORT CLOUDY    74  69  85 S12       29.83S
KANKAKEE*      CLOUDY    73  69  87 S10       29.89R
WHEELING       CLOUDY    76  68  76 S13       29.84F
MORRIS*        CLOUDY    74  72  93 SW9       29.85R
ROMEOVILLE*    CLOUDY    72  70  93 S10       29.85S
NORTHERLY ISL    N/A     75  67  76 S9          N/A
$$

LMZ740>746-300900-
SOUTHERN LAKE MICHIGAN

STATION/POSITION SKY/WX   TEMP    WIND        PRES    VSBY  WAVE
                          AIR SEA DIR/SP/G                  HT/PER
                          (F)     (DEG/KT/KT) (MB)    (MI)  (FT/S)
SOUTHERN BUOY              72 69              1010.2F
WAUKEGAN HARBOR            75     190/ 13/ 15   N/A
HARRISON CRIB              74     180/ 18/ 19   N/A
BURNHAM HARBOR             75     190/ 11       N/A
CALUMET HARBOR             75     170/  9/ 13 1009.5F
MICHIGAN CITY              74     150/ 14/ 20   N/A
MICHIGAN CITY 6N           74 72  180/ 14/ 19   N/A           2/ 2
ST. JOSEPH                 74 70  160/ 16/ 21   N/A           2/ 3
$$

ILZ025>027-034>036-040-047-049-050-058-095>099-300900-
WEST-CENTRAL ILLINOIS

CITY           SKY/WX    TMP DP  RH WIND       PRES   REMARKS
QUINCY         MOCLDY    72  69  90 SW9       29.88R
GALESBURG*     PTCLDY    69  69 100 S6        29.84S
MACOMB*        MOCLDY    71  70  97 S10       29.86F
JACKSONVILLE*  MOCLDY    74  71  92 S8        29.89S
PITTSFIELD*    PTCLDY    73  69  89 S7        29.90R
$$

ILZ028>032-037-038-041>044-048-051>054-059>061-300900-
CENTRAL ILLINOIS

CITY           SKY/WX    TMP DP  RH WIND       PRES   REMARKS
PONTIAC        CLOUDY    75  72  88 S8        29.87S
DECATUR        CLOUDY    76  69  79 S14       29.92R
PEORIA         PTCLDY    72  69  90 S8        29.86F FOG
LACON*         CLOUDY    71  69  90 S6        29.84F
LINCOLN*       CLOUDY    74  70  86 S3        29.86S
SPRINGFIELD    CLOUDY    75  70  84 SW9       29.89S
TAYLORVILLE    CLOUDY    72  70  94 S8        29.92R
$$

ILZ033-039-045-046-055>057-062-063-300900-
EAST-CENTRAL ILLINOIS

CITY           SKY/WX    TMP DP  RH WIND       PRES   REMARKS
CHAMPAIGN      CLOUDY    73  69  87 S7        29.92S
DANVILLE*      HVY RAIN  73  69  86 S12       29.90S
RANTOUL*       CLOUDY    75  68  77 S6        29.92S
MATTOON        CLOUDY    74  68  81 S8        29.94S
PARIS*         MOCLDY    72  70  92 S7        29.94F
$$

ILZ079-100>102-300900-
SOUTHWEST ILLINOIS

CITY           SKY/WX    TMP DP  RH WIND       PRES   REMARKS
BELLEVILLE     CLOUDY    73  72  99 E5        29.93S
CAHOKIA*       CLOUDY    76  68  76 S5        29.93R
SPARTA*        DRIZZLE   71  69  95 CALM      29.96F
$$

ILZ064>066-069>071-074>076-080>082-084>086-088>090-092>094-300900-
SOUTH-CENTRAL ILLINOIS

CITY           SKY/WX    TMP DP  RH WIND       PRES   REMARKS
CARBONDALE     CLOUDY    73  68  84 S5        29.96S
CAIRO*         MOCLDY    74  70  87 S5        29.98S
EFFINGHAM*     RAIN      74  64  70 S13       29.95S
MARION         CLOUDY    75  70  83 S6        29.98R
MT. VERNON     CLOUDY    73  66  78 SW8       29.97S
CENTRALIA*     CLOUDY    73  66  78 SW9       29.96S
SALEM*         CLOUDY    76  69  81 SW10      29.96S
METROPOLIS*    CLOUDY    74  69  85 S5        29.98S
$$

ILZ067-068-072-073-078-083-087-091-300900-
SOUTHEAST ILLINOIS

CITY           SKY/WX    TMP DP  RH WIND       PRES   REMARKS
LAWRENCEVILLE  CLOUDY    75  68  78 S9        29.97S
FLORA*         MOCLDY    73  68  83 S7        29.96F
FAIRFIELD*     LGT RAIN  75  72  88 S5        29.97S
HARRISBURG*    LGT RAIN  73  71  91 CALM      29.99S
ROBINSON*      MOCLDY    75  70  84 S7        29.97R
CARMI*         CLOUDY    75  70  86 S3        29.97S
$$

ABBREVIATIONS USED IN REMARKS
   TC - TEMPERATURE IN CELSIUS
  WCI - WIND CHILL INDEX
   HX - HEAT INDEX
  VSB - VISIBILITY
$$




USA.gov is the U.S. government's official web portal to all federal, state and local government web resources and services.